Overview Statistics Trail Chart Weather Telemetry Raw packets
 

This is the latest recevied weather packets stored in our database for station/object W1HVD. If no packets are shown the sender has not sent any weather packets the latest 10 day(s).

<< 63 64 65 66 67 68 69 >>
Time Temp. Humidity Pressure Rain* Wind** Luminosity Snow
1777236333 15.56° C 40% 1020.1 hPa 0 mm - 311 W/m² -
1777236030 15.56° C 39% 1020.3 hPa 0 mm - 324 W/m² -
1777235726 15° C 41% 1020.2 hPa 0 mm - 339 W/m² -
1777235423 16.11° C 41% 1020.3 hPa 0 mm - 350 W/m² -
1777235120 15.56° C 41% 1020 hPa 0 mm - 372 W/m² -
1777234815 15° C 39% 1020.2 hPa 0 mm - 381 W/m² -
1777234512 15.56° C 38% 1020.2 hPa 0 mm - 394 W/m² -
1777234211 15.56° C 39% 1020.2 hPa 0 mm - 408 W/m² -
1777233908 15.56° C 40% 1020.3 hPa 0 mm - 409 W/m² -
1777233604 15.56° C 40% 1020.3 hPa 0 mm - 420 W/m² -
1777233303 16.11° C 41% 1020.3 hPa 0 mm - 432 W/m² -
1777232999 15.56° C 42% 1020.1 hPa 0 mm - 412 W/m² -
1777232696 15° C 41% 1020.1 hPa 0 mm - 406 W/m² -
1777232395 16.11° C 42% 1020.2 hPa 0 mm - 400 W/m² -
1777232091 15.56° C 38% 1020.2 hPa 0 mm - 418 W/m² -
1777231788 15° C 38% 1020.2 hPa 0 mm - 421 W/m² -
1777231484 15.56° C 41% 1020.4 hPa 0 mm - 489 W/m² -
1777231181 15° C 42% 1020.1 hPa 0 mm - 604 W/m² -
1777230877 14.44° C 45% 1020.3 hPa 0 mm - 635 W/m² -
1777230572 14.44° C 42% 1020.3 hPa 0 mm - 299 W/m² -
1777230268 15° C 39% 1020.2 hPa 0 mm - 253 W/m² -
1777229966 15° C 39% 1020.2 hPa 0 mm - 601 W/m² -
1777229662 15° C 40% 1020.4 hPa 0 mm - 489 W/m² -
1777229359 15° C 39% 1020.3 hPa 0 mm - 543 W/m² -
1777229056 14.44° C 39% 1020.4 hPa 0 mm - 414 W/m² -

* Rain latest hour (hover to see other rain measurements)
** Current wind speed in m/s (hover to see current wind gust speed)